This is the latest recevied weather packets stored in our database for station/object OM0AGP-15. If no packets are shown the sender has not sent any weather packets the latest 10 day(s).
| Time | Temp. | Humidity | Pressure | Rain* | Wind** | Luminosity | Snow |
|---|---|---|---|---|---|---|---|
| 1787732910 | 15° C | 63% | 1020 hPa | - | - | - | - |
| 1787732010 | 15° C | 63% | 1019.9 hPa | - | - | - | - |
| 1787731110 | 15.56° C | 62% | 1019.7 hPa | - | - | - | - |
| 1787730210 | 15.56° C | 64% | 1019.6 hPa | - | - | - | - |
| 1787729310 | 15° C | 64% | 1019.5 hPa | - | - | - | - |
| 1787728410 | 15° C | 63% | 1019.3 hPa | - | - | - | - |
| 1787727510 | 15° C | 62% | 1019.5 hPa | - | - | - | - |
| 1787726609 | 15° C | 64% | 1019.3 hPa | - | - | - | - |
| 1787725709 | 14.44° C | 65% | 1019.1 hPa | - | - | - | - |
| 1787724809 | 14.44° C | 66% | 1019.1 hPa | - | - | - | - |
| 1787723909 | 13.89° C | 66% | 1019.1 hPa | - | - | - | - |
| 1787723009 | 13.89° C | 68% | 1019.1 hPa | - | - | - | - |
| 1787722109 | 13.89° C | 69% | 1019 hPa | - | - | - | - |
| 1787721209 | 13.89° C | 70% | 1018.9 hPa | - | - | - | - |
| 1787720309 | 13.89° C | 68% | 1018.8 hPa | - | - | - | - |
| 1787719409 | 13.89° C | 70% | 1018.9 hPa | - | - | - | - |
| 1787718509 | 13.89° C | 69% | 1018.9 hPa | - | - | - | - |
| 1787717609 | 13.89° C | 70% | 1018.9 hPa | - | - | - | - |
| 1787716709 | 13.89° C | 69% | 1018.9 hPa | - | - | - | - |
| 1787715809 | 13.89° C | 68% | 1018.8 hPa | - | - | - | - |
| 1787714909 | 13.89° C | 70% | 1018.6 hPa | - | - | - | - |
| 1787714009 | 13.33° C | 72% | 1018.6 hPa | - | - | - | - |
| 1787713109 | 13.33° C | 79% | 1018.7 hPa | - | - | - | - |
| 1787712209 | 13.33° C | 77% | 1018.7 hPa | - | - | - | - |
| 1787711308 | 13.33° C | 78% | 1018.8 hPa | - | - | - | - |
* Rain since midnight (hover to see other rain measurements)
** Current wind speed in m/s (hover to see current wind gust speed)